Regional Weather Roundup
Issued by NWS

Home | Current Version | Previous Version | Text Only | Print | Product List | Glossary Off
Versions: 1 2 3 4 5 6 7 8 9 10 11 12 13 14 15 16 17 18 19 20 21 22 23 24 25 26 27 28 29 30 31 32 33 34 35 36 37 38 39 40 41 42 43 44 45 46 47 48 49 50

000
ASUS43 KDMX 040507
RWRIA

WEATHER ROUNDUP FOR IOWA
NATIONAL WEATHER SERVICE DES MOINES IA
1200 AM CDT SAT JUL 04 2015

NOTE: "FAIR" INDICATES FEW OR NO CLOUDS BELOW 12,000 FEET WITH NO
SIGNIFICANT WEATHER AND/OR OBSTRUCTIONS TO VISIBILITY.

* - THESE STATIONS ARE NOT NWS STATIONS...THUS NOT UNDER NWS
QUALITY CONTROL.  THEY ALSO DO NOT REPORT WEATHER SUCH
AS PRECIPITATION OR FOG.

IAZ001>003-012>014-020>022-031>034-043>046-040600-
   NORTHWEST IOWA

CITY           SKY/WX    TMP DP  RH WIND       PRES   REMARKS
CARROLL *      CLOUDY    59  57  94 CALM      29.99S
CHEROKEE *     CLEAR     59  59 100 CALM      29.98S
DENISON *      CLOUDY    57  57 100 CALM      29.98S
LE MARS *        N/A     63  59  88 S3        29.99R
ORANGE CITY *  CLEAR     63  55  77 CALM      29.98S
SHELDON *      MOCLDY    61  61 100 CALM      29.97S
SIOUX CITY     CLEAR     64  59  83 CALM      29.98R
SPENCER        CLEAR     62  56  80 SW8       29.98R
STORM LAKE *   CLEAR     63  57  82 SW7       30.00S
$$

IAZ055>058-069>071-079>083-090>094-040600-
   SOUTHWEST IOWA

CITY           SKY/WX    TMP DP  RH WIND       PRES   REMARKS
ATLANTIC *     CLOUDY    57  57 100 CALM      30.00S
AUDUBON *      CLEAR     55  54  94 CALM      30.01S
CLARINDA *     CLEAR     59  59 100 CALM      30.01S
COUNCIL BLFS * CLOUDY    64  57  77 SE5       30.00S
CRESTON *      CLEAR     63  59  88 CALM      30.00S
HARLAN  *      CLEAR     55  55 100 CALM      30.03S
LAMONI         CLEAR     68  56  65 CALM      29.99S
RED OAK *        N/A     57  57 100 CALM      30.00S
SHENANDOAH *     N/A     61  59  94 CALM      30.01R
$$

IAZ047>049-059>061-072>074-084-040600-
   CENTRAL IOWA

CITY           SKY/WX    TMP DP  RH WIND       PRES   REMARKS
AMES           CLEAR     60  57  89 CALM      29.98R
ANKENY *       CLEAR     61  61 100 CALM      29.98R
CHARITON *     CLOUDY    61  57  88 CALM      29.99S
DES MOINES     PTCLDY    68  58  70 S3        29.98R
GRINNELL*      CLEAR     63  57  82 CALM      30.00R
KNOXVILLE *    CLEAR     61  57  88 SW6       29.98R
MARSHALLTOWN   CLEAR     63  60  90 CALM      29.98R
PELLA *        CLEAR     61  61  99 CALM      30.00R
PERRY *          N/A     63  57  82 W5        29.99S
$$

IAZ004>006-015-016-023>025-035-036-040600-
   NORTH CENTRAL IOWA

CITY           SKY/WX    TMP DP  RH WIND       PRES   REMARKS
ALGONA *       CLEAR     63  59  88 SW6       29.98R
CLARION *      CLEAR     59  55  88 S5        29.98R
ESTHERVILLE    CLEAR     62  58  86 SW6       29.97R
FORT DODGE *   CLEAR     57  52  82 CALM      29.99R
MASON CITY     CLEAR     62  55  77 SW3       29.98R
FOREST CITY *  CLEAR     55  55 100 CALM      29.97R
IOWA FALLS *     N/A     61  55  82 SW3       29.99S
$$

IAZ007>011-017>019-026>030-037>042-050>054-066-040600-
   NORTHEAST IOWA

CITY           SKY/WX    TMP DP  RH WIND       PRES   REMARKS
CEDAR RAPIDS   CLEAR     59  58  96 CALM      29.97R
CHARLES CITY * CLEAR     61  61 100 CALM      29.97S
CLINTON *      CLEAR     61  55  82 CALM      29.99S
DECORAH *        N/A    N/A N/A N/A MISG        N/A
DUBUQUE        CLEAR     59  55  87 CALM      29.98R
MONTICELLO *   CLEAR     57  57 100 CALM      29.97R
OELWEIN *      CLEAR     63  59  88 SW5       29.98R
WATERLOO       CLEAR     62  59  90 CALM      29.96R
$$

IAZ064-065-067-068-078-040600-
   EAST CENTRAL IOWA

CITY           SKY/WX    TMP DP  RH WIND       PRES   REMARKS
DAVENPORT      CLEAR     61  57  87 CALM      29.97R
IOWA CITY      CLEAR     61  57  87 CALM      29.98R
MT. PLEASANT * CLEAR     64  59  82 CALM      29.98R
MUSCATINE *    CLEAR     63  57  82 CALM      29.97R
QUAD CITIES    CLEAR     61  58  90 CALM      29.96R
$$

IAZ062-063-075>077-085>089-095>099-040600-
   SOUTHEAST IOWA

CITY           SKY/WX    TMP DP  RH WIND       PRES   REMARKS
BURLINGTON     CLEAR     62  61  96 CALM      29.97R
FAIRFIELD *    CLEAR     61  57  88 NW5       29.98R
KEOKUK *       CLEAR     64  63  94 CALM      29.96S
OSKALOOSA *      N/A     57  55  94 CALM      29.99R
CENTERVILLE *  CLEAR     63  59  88 CALM      30.01R
OTTUMWA        CLEAR     61  58  90 CALM      29.97R
WASHINGTON *   CLEAR     61  59  94 CALM      29.99R
$$

ABBREVIATIONS USED IN REMARKS
   TC - TEMPERATURES IN CELSIUS
  WCI - WIND CHILL INDEX
   HX - HEAT INDEX
  VSB - VISIBILITY
$$




USA.gov is the U.S. government's official web portal to all federal, state and local government web resources and services.